Regional Weather Roundup
Issued by NWS

Home | Current Version | Previous Version | Graphics & Text | Print | Product List | Glossary On
Versions: 1 2 3 4 5 6 7 8 9 10 11 12 13 14 15 16 17 18 19 20 21 22 23 24 25 26 27 28 29 30 31 32 33 34 35 36 37 38 39 40 41 42 43 44 45 46 47 48 49 50
000
ASUS43 KLSX 261757
RWRMO

WEATHER SUMMARY FOR MISSOURI
NATIONAL WEATHER SERVICE SPRINGFIELD MO
100 PM CDT MON JUN 26 2017

NOTE: "FAIR" INDICATES FEW OR NO CLOUDS BELOW 12,000 FEET WITH NO
       SIGNIFICANT WEATHER AND/OR OBSTRUCTIONS TO VISIBILITY.
       CURRENT SKY AND/OR WEATHER CONDITIONS ARE NOT AVAILABLE FOR
       CHILLICOTHE AND FARMINGTON.

MOZ001>031-035>038-043-044-053-054-261900-
...NORTHERN AND WESTERN MISSOURI...

CITY           SKY/WX    TMP DP  RH WIND       PRES   REMARKS
KANSAS CTY INT CLOUDY    60  55  83 NE14      30.25R
6HR MIN TEMP:  53; 6HR MAX TEMP:  62; 6HR PCP:  0.41;

LEE`S SUMMIT   CLOUDY    63  58  83 NE13      30.23F
6HR MIN TEMP:  56; 6HR MAX TEMP:  71; 6HR PCP:  0.12;

ST JOSEPH      LGT RAIN  58  57  97 S15       30.20F FOG
6HR MIN TEMP:  56; 6HR MAX TEMP:  60; 6HR PCP:  0.61;

CHILLICOTHE      N/A     61  57  87 SE5       30.20F
6HR MIN TEMP:  54; 6HR MAX TEMP:  61; 6HR PCP:  0.13;


$$
MOZ066>068-077>081-088>096-101>105-261900-
...SOUTHWEST MISSOURI...

CITY           SKY/WX    TMP DP  RH WIND       PRES   REMARKS
SPRINGFIELD    CLOUDY    72  61  68 S6        30.18F
6HR MIN TEMP:  62; 6HR MAX TEMP:  72;

JOPLIN         CLOUDY    81  65  58 S8        30.17F
6HR MIN TEMP:  65; 6HR MAX TEMP:  81;

BRANSON        CLOUDY    77  57  50 SW6       30.22F

$$
MOZ032>034-039>042-045>050-055>058-069>072-261900-
...CENTRAL MISSOURI...

CITY           SKY/WX    TMP DP  RH WIND       PRES   REMARKS
COLUMBIA       NOT AVBL
JEFFERSON CITY PTSUNNY   76  46  34 N9        30.21S
6HR MIN TEMP:  55; 6HR MAX TEMP:  78;

SEDALIA        LGT RAIN  64  58  80 N10       30.27R
6HR MIN TEMP:  57; 6HR MAX TEMP:  77; 6HR PCP:  0.04;

WARRENSBURG    LGT RAIN  61  55  82 N9        30.23F

$$
MOZ051-052-059>065-261900-
...EAST CENTRAL MISSOURI...

CITY           SKY/WX    TMP DP  RH WIND       PRES   REMARKS
ST LOUIS INTL  PTSUNNY   79  45  29 N12       30.20F
6HR MIN TEMP:  64; 6HR MAX TEMP:  81;


$$
MOZ072>076-082>087-097>100-106>115-261900-
...SOUTH CENTRAL AND SOUTHEAST MISSOURI...

CITY           SKY/WX    TMP DP  RH WIND       PRES   REMARKS
CAPE GIRARDEAU SUNNY     75  52  44 SW6       30.18F
6HR MIN TEMP:  65; 6HR MAX TEMP:  76;

POPLAR BLUFF   SUNNY     75  56  51 CALM      30.18F
6HR MIN TEMP:  65; 6HR MAX TEMP:  76; 6HR PCP: TRACE;

WEST PLAINS    MOSUNNY   78  59  51 VRB7      30.21F
6HR MIN TEMP:  62; 6HR MAX TEMP:  78; 6HR PCP:  0.08;


$$



USA.gov is the U.S. government's official web portal to all federal, state and local government web resources and services.